Home   Weather   Oxnard   Past weeks

Flag for USA Past Weather in Oxnard, California, USA — Yesterday and Last 2 Weeks

Now
55 °F

Fog.


Feels Like: 55 °F
Forecast: 57 / 71 °F
Wind: 3 mph from West

Location: Oxnard Airport

Current Time: Apr 23, 2017 at 6:48:12 am

Latest Report: Apr 23, 2017 at 5:51 am


Visibility: 6 mi

Pressure: 29.83 "Hg

Humidity: 90%

Dew Point: 52 °F

Location of OxnardLocation

Past Weather in Oxnard — Graph

°F

Oxnard Temperature Yesterday

Maximum temperature yesterday: 72 °F (at 12:51 pm)
Minimum temperature yesterday: 55 °F (at 5:51 am)
Average temperature yesterday: 62 °F

High & Low Weather Summary for the Past Weeks

 TemperatureHumidityPressure
High78 °F (Apr 21, 12:51 pm)100% (Apr 12, 11:51 pm)30.16 "Hg (Apr 12, 11:51 pm)
Low48 °F (Apr 14, 6:51 am)25% (Apr 21, 12:51 pm)29.81 "Hg (Apr 23, 3:51 am)
Average60 °F71%30.01 "Hg
* Reported Apr 8 4:51 am — Apr 23 4:51 am, Oxnard, Weather by CustomWeather, © 2017

Note: Actual official high and low records may vary slightly from our data, if they occured in-between our weather recording intervals... More about our weather records

Advertising

Oxnard Weather History for the Previous 24 Hours

Scroll right to see more
 ConditionsComfort  
Time TempWeatherWind HumidityBarometerVisibility
4:51 am
Sun, Apr 23
55 °FClear.No wind87%29.82 "Hg10 mi
3:51 am58 °FClear.No wind84%29.81 "Hg10 mi
2:51 am57 °FClear.No wind90%29.82 "Hg10 mi
1:51 am58 °FClear.5 mph87%29.83 "Hg10 mi
12:51 am59 °FClear.3 mph81%29.84 "Hg10 mi
11:51 pm
Sat, Apr 22
59 °FClear.No wind84%29.84 "Hg10 mi
10:51 pm58 °FClear.9 mph84%29.84 "Hg10 mi
9:51 pm60 °FClear.No wind78%29.84 "Hg10 mi
8:51 pm60 °FClear.No wind75%29.83 "Hg10 mi
7:51 pm60 °FClear.7 mph75%29.83 "Hg10 mi
6:51 pm62 °FSunny.8 mph70%29.83 "Hg10 mi
5:51 pm65 °FSunny.12 mph63%29.84 "Hg10 mi
4:51 pm66 °FSunny.15 mph63%29.84 "Hg10 mi
3:51 pm69 °FSunny.13 mph59%29.85 "Hg10 mi
2:51 pm69 °FSunny.10 mph59%29.86 "Hg10 mi
1:51 pm70 °FSunny.5 mph55%29.87 "Hg10 mi
12:51 pm72 °FSunny.9 mph49%29.88 "Hg10 mi
10:51 am69 °FSunny.9 mph55%29.90 "Hg10 mi
9:51 am67 °FSunny.10 mph63%29.89 "Hg10 mi
8:51 am66 °FSunny.No wind63%29.89 "Hg10 mi
7:51 am60 °FSunny.No wind83%29.89 "Hg8 mi
6:51 am56 °FSunny.No wind87%29.88 "Hg7 mi
Weather by CustomWeather, © 2017

See weather overviewHow to use our weather pages